Location: Elende
(51.4317°N, 10.6316°E)
Time: 00:23:51
(UTC+00:00)

Cosmos 1891 Rocket - Pass Details

Date: 18 September 2020
Orbit: 934 x 1018 km, 82.9° (Epoch: 23 October)

Event Time Altitude Azimuth Distance (km) Brightness Sun altitude
Rises 18:26:01 0° 174° (S) 3,642 7.3 -10.3°
Reaches altitude 10° 18:28:34 10° 170° (S) 2,688 6.6 -10.7°
Maximum altitude 18:34:33 58° 93° (E) 1,099 4.5 -11.6°
Drops below altitude 10° 18:40:29 10° 16° (NNE) 2,664 6.8 -12.5°
Sets 18:42:59 0° 13° (NNE) 3,608 7.6 -12.9°
